Weather History for KDFW - January, 2002

Change the Weather History Date:

Tuesday, January 1, 2002

  Actual Average Record
Temperature  
Mean Temperature 37 °F 45 °F  
Max Temperature 42 °F 56 °F 83 °F (2006)
Min Temperature 32 °F 35 °F 10 °F (1928)
Degree Days  
Heating Degree Days 28 20  
Month to date heating degree days 20  
Since 1 July heating degree days 932  
Cooling Degree Days 0 0  
Month to date cooling degree days 0  
Year to date cooling degree days 0  
Moisture  
Dew Point 18 °F    
Average Humidity 50    
Maximum Humidity 59    
Minimum Humidity 35    
Precipitation  
Precipitation 0.00 in 0.06 in 1.04 in (1944)
Month to date precipitation 0.06  
Year to date precipitation 0.06  
Snow  
Snow 0.00 in 0.00 in 1.20 in (1985)
Month to date snowfall 0.0  
Since 1 July snowfall 0.3  
Snow Depth -    
Sea Level Pressure  
Sea Level Pressure 30.37 in    
Wind  
Wind Speed 10 mph (NNE)    
Max Wind Speed 16 mph    
Max Gust Speed 24 mph    
Visibility 10 miles    
Events      
T = Trace of Precipitation, MM = Missing Value Source: NWS Daily Summary

Daily Weather History Graph

Daily Weather History Graph

Search for Another Location

Airport or City:

Trip Planner

Search our weather history database for the weather conditions in past years. The results will help you decide how hot, cold, wet, or windy it might be!

Date:

Astronomy

Jan. 01, 2002 Rise Set
Actual Time 7:30 AM CST 5:32 PM CST
Civil Twilight 7:03 AM CST 5:59 PM CST
Nautical Twilight 6:32 AM CST 6:30 PM CST
Astronomical Twilight 6:02 AM CST 7:00 PM CST
Moon 8:12 PM CST (1/1) 9:36 AM CST (1/1)
Length of Visible Light 10h 56m
Length of Day
10h 01m
Waning Gibbous, 93% of the Moon is Illuminated
Jan 1
Waning Gibbous
Jan 5
Last Quarter
Jan 13
New
Jan 21
First Quarter
Jan 28
Full

Hourly Weather History & Observations

Time (CST) Temp. Windchill Dew Point Humidity Pressure Visibility Wind Dir Wind Speed Gust Speed Precip Events Conditions
12:56 AM 33.1 °F 26.9 °F 18.0 °F 54% 30.34 in 10.0 mi NNE 6.9 mph - N/A   Overcast
1:56 AM 33.1 °F 25.5 °F 18.0 °F 54% 30.34 in 10.0 mi NNE 9.2 mph - N/A   Overcast
2:56 AM 33.1 °F 25.5 °F 18.0 °F 54% 30.35 in 10.0 mi NNE 9.2 mph - N/A   Overcast
3:56 AM 33.1 °F 26.1 °F 19.0 °F 56% 30.34 in 10.0 mi NNE 8.1 mph - N/A   Overcast
4:56 AM 33.1 °F 24.9 °F 18.0 °F 54% 30.33 in 10.0 mi NNE 10.4 mph - N/A   Overcast
5:56 AM 32.0 °F 24.2 °F 18.0 °F 56% 30.33 in 10.0 mi NNE 9.2 mph - N/A   Overcast
6:56 AM 32.0 °F 24.2 °F 18.0 °F 56% 30.35 in 10.0 mi NNE 9.2 mph - N/A   Overcast
7:56 AM 33.1 °F 25.5 °F 18.0 °F 54% 30.38 in 10.0 mi North 9.2 mph - N/A   Mostly Cloudy
8:56 AM 34.0 °F 25.5 °F 18.0 °F 52% 30.41 in 10.0 mi NNE 11.5 mph - N/A   Mostly Cloudy
9:56 AM 35.1 °F 26.4 °F 19.0 °F 52% 30.43 in 10.0 mi NNE 12.7 mph - N/A   Overcast
10:56 AM 37.9 °F 30.0 °F 18.0 °F 45% 30.41 in 10.0 mi NE 12.7 mph - N/A   Mostly Cloudy
11:56 AM 39.0 °F 31.4 °F 16.0 °F 39% 30.37 in 10.0 mi NE 12.7 mph - N/A   Mostly Cloudy
12:56 PM 39.9 °F 33.4 °F 16.0 °F 38% 30.34 in 10.0 mi NE 10.4 mph 19.6 mph N/A   Mostly Cloudy
1:56 PM 39.9 °F 31.8 °F 17.1 °F 40% 30.31 in 10.0 mi NE 15.0 mph - N/A   Mostly Cloudy
2:56 PM 41.0 °F 32.8 °F 17.1 °F 38% 30.30 in 10.0 mi NNE 16.1 mph 24.2 mph N/A   Overcast
3:56 PM 42.1 °F 34.9 °F 16.0 °F 35% 30.32 in 10.0 mi NE 13.8 mph - N/A   Overcast
4:56 PM 39.0 °F 31.0 °F 17.1 °F 41% 30.32 in 10.0 mi NNE 13.8 mph - N/A   Overcast
5:56 PM 36.0 °F 30.3 °F 16.0 °F 44% 30.36 in 10.0 mi NNE 6.9 mph - N/A   Overcast
6:56 PM 35.1 °F 26.9 °F 19.0 °F 52% 30.38 in 10.0 mi NNE 11.5 mph - N/A   Overcast
7:56 PM 35.1 °F 27.9 °F 18.0 °F 50% 30.41 in 10.0 mi NNE 9.2 mph - N/A   Overcast
8:56 PM 32.0 °F 25.6 °F 18.0 °F 56% 30.43 in 10.0 mi NE 6.9 mph - N/A   Overcast
9:56 PM 32.0 °F 25.6 °F 19.0 °F 59% 30.43 in 10.0 mi NE 6.9 mph - N/A   Overcast
10:56 PM 33.1 °F 25.5 °F 18.0 °F 54% 30.41 in 10.0 mi NNE 9.2 mph - N/A   Overcast
11:56 PM 32.0 °F 24.2 °F 18.0 °F 56% 30.42 in 10.0 mi NNE 9.2 mph - N/A   Mostly Cloudy